Back to catalog

AEROCUBE 18B

AliveScienceSSO
NORAD 63222·PAYLOAD·🇺🇸 United States

Launched Mar 15, 2025 from Vandenberg Space Force Base

Loading…

Next Passes (next 24 hours)

TLE

FreshSource: Space-Track

Epoch: Sep 14, 2026, 12:06 UTC

1 63222U 25052N   26257.50447864  .00004751  00000-0  19191-3 0  9990
2 63222  97.3831 149.7989 0004884 153.2556 206.8935 15.25233343 83506

Track AEROCUBE 18B in real time with AllMySat

Download on the App Store